Torna al catalogo

HULIANWANG DIGUI-86

AttivoComunicazioniPO
NORAD 65821·PAYLOAD·🇨🇳 China

Lanciato Sep 27, 2025 da Taiyuan Satellite Launch Center

Loading…

Prossimi Passaggi (prossime 24 ore)

TLE

AggiornatoSource: Space-Track

Epoca: Sep 14, 2026, 06:44 UTC

1 65821U 25220E   26257.28115947  .00000062  00000-0  11003-3 0  9998
2 65821  86.5030  13.7513 0001407 107.2783 252.8505 13.24412691 46714

Traccia HULIANWANG DIGUI-86 in tempo reale con AllMySat

Download on the App Store